Weather History for Beaufort, NC

Change the Weather History Date:

Sunday, February 17, 2013

  Actual Average Record
Temperature  
Mean Temperature 36 °F -  
Max Temperature 39 °F 57 °F 71 °F (1990)
Min Temperature 32 °F 38 °F 14 °F (1958)
Degree Days  
Heating Degree Days 30    
Moisture  
Dew Point 23 °F    
Average Humidity 66    
Maximum Humidity 93    
Minimum Humidity 36    
Precipitation  
Precipitation 0.00 in - - ()
Sea Level Pressure  
Sea Level Pressure 30.02 in    
Wind  
Wind Speed 19 mph (NW)    
Max Wind Speed 28 mph    
Max Gust Speed 34 mph    
Visibility 9 miles    
Events Snow    
Averages and records for this station are not official NWS values.
T = Trace of Precipitation, MM = Missing Value Source: NWS Daily Summary

Daily Weather History Graph

Daily Weather History Graph

Search for Another Location

Airport:

Trip Planner

Search our weather history database for the weather conditions in past years. The results will help you decide how hot, cold, wet, or windy it might be!

Date:

Astronomy

Feb. 17, 2013 Rise Set
Actual Time 6:49 AM EST 5:51 PM EST
Civil Twilight 6:24 AM EST 6:17 PM EST
Nautical Twilight 5:54 AM EST 6:47 PM EST
Astronomical Twilight 5:25 AM EST 7:16 PM EST
Moon 11:00 AM EST (2/17) 12:27 AM EST (2/17)
Length of Visible Light 11h 53m
Length of Day
11h 02m
Waxing Crescent, 49% of the Moon is Illuminated
Feb 17
Waxing Crescent
Feb 17
First Quarter
Feb 25
Full
Mar 4
Last Quarter
Mar 11
New

Hourly Weather History & Observations

Time (EST) Temp. Windchill Dew Point Humidity Pressure Visibility Wind Dir Wind Speed Gust Speed Precip Events Conditions
12:13 AM 35.6 °F 25.2 °F 33.8 °F 93% 29.83 in 10.0 mi NNW 18.4 mph 23.0 mph 0.00 in   Overcast
12:37 AM 35.6 °F 25.5 °F 33.8 °F 93% 29.84 in 6.0 mi NW 17.3 mph - 0.00 in Snow Light Snow
12:50 AM 35.6 °F 24.8 °F 33.8 °F 93% 29.84 in 6.0 mi NNW 19.6 mph 25.3 mph 0.00 in Snow Light Snow
1:41 AM 35.6 °F 24.5 °F 32.0 °F 87% 29.85 in 6.0 mi NNW 20.7 mph 28.8 mph 0.00 in Snow Light Snow
1:50 AM 35.6 °F 24.8 °F 32.0 °F 87% 29.85 in 5.0 mi NW 19.6 mph 25.3 mph 0.00 in Snow Light Snow
1:58 AM 35.1 °F 24.1 °F 32.0 °F 89% 29.85 in 5.0 mi NW 19.6 mph 26.5 mph 0.00 in Snow Light Snow
2:14 AM 35.6 °F 24.0 °F 32.0 °F 87% 29.86 in 6.0 mi NNW 23.0 mph 27.6 mph 0.00 in Snow Light Snow
2:25 AM 35.6 °F 24.2 °F 32.0 °F 87% 29.87 in 6.0 mi NNW 21.9 mph 29.9 mph 0.00 in Snow Light Snow
2:48 AM 33.8 °F 22.8 °F 30.2 °F 87% 29.88 in 10.0 mi NNW 18.4 mph 24.2 mph 0.00 in   Overcast
2:58 AM 34.0 °F 22.7 °F 30.0 °F 85% 29.88 in 10.0 mi NNW 19.6 mph - 0.00 in   Mostly Cloudy
3:58 AM 34.0 °F 23.4 °F 28.9 °F 82% 29.90 in 10.0 mi NW 17.3 mph 24.2 mph 0.00 in   Mostly Cloudy
4:58 AM 34.0 °F 23.4 °F 30.0 °F 85% 29.93 in 10.0 mi NW 17.3 mph - N/A   Overcast
5:58 AM 33.1 °F 22.2 °F 28.0 °F 82% 29.97 in 10.0 mi WNW 17.3 mph 31.1 mph N/A   Scattered Clouds
6:58 AM 32.0 °F 20.8 °F 25.0 °F 75% 29.99 in 10.0 mi WNW 17.3 mph 28.8 mph N/A   Clear
7:58 AM 33.1 °F 20.6 °F 25.0 °F 72% 30.01 in 10.0 mi WNW 23.0 mph 28.8 mph N/A   Clear
8:58 AM 34.0 °F 22.4 °F 24.1 °F 67% 30.04 in 10.0 mi NW 20.7 mph 32.2 mph N/A   Clear
9:58 AM 35.1 °F 24.8 °F 21.0 °F 57% 30.06 in 10.0 mi NW 17.3 mph 29.9 mph N/A   Partly Cloudy
10:58 AM 37.0 °F 26.2 °F 18.0 °F 46% 30.08 in 10.0 mi WNW 21.9 mph 32.2 mph N/A   Partly Cloudy
11:58 AM 36.0 °F 23.9 °F 17.1 °F 46% 30.07 in 10.0 mi NW 25.3 mph 31.1 mph N/A   Mostly Cloudy
12:58 PM 36.0 °F 23.9 °F 17.1 °F 46% 30.07 in 10.0 mi WNW 25.3 mph 32.2 mph N/A   Mostly Cloudy
1:58 PM 39.0 °F 27.6 °F 17.1 °F 41% 30.06 in 10.0 mi NW 27.6 mph 34.5 mph N/A   Mostly Cloudy
2:58 PM 37.9 °F 27.3 °F 14.0 °F 38% 30.08 in 10.0 mi NW 21.9 mph 33.4 mph N/A   Partly Cloudy
3:58 PM 37.9 °F 26.6 °F 12.9 °F 36% 30.10 in 10.0 mi NW 25.3 mph 31.1 mph N/A   Clear
4:58 PM 37.0 °F 26.4 °F 12.0 °F 36% 30.12 in 10.0 mi NW 20.7 mph 28.8 mph N/A   Clear
5:58 PM 36.0 °F 26.7 °F 12.9 °F 39% 30.15 in 10.0 mi WNW 15.0 mph - N/A   Clear
6:58 PM 35.1 °F 27.9 °F 12.9 °F 40% 30.18 in 10.0 mi WNW 9.2 mph - N/A   Clear
7:58 PM 32.0 °F 26.4 °F 16.0 °F 52% 30.20 in 10.0 mi WNW 5.8 mph - N/A   Clear
8:58 PM 32.0 °F 25.6 °F 16.0 °F 52% 30.23 in 10.0 mi West 6.9 mph - N/A   Clear
9:58 PM 32.0 °F 25.6 °F 17.1 °F 54% 30.26 in 10.0 mi WNW 6.9 mph - N/A   Clear
10:58 PM 33.1 °F 24.9 °F 16.0 °F 50% 30.27 in 10.0 mi West 10.4 mph - N/A   Clear
11:58 PM 33.1 °F 25.5 °F 18.0 °F 54% 30.30 in 10.0 mi WNW 9.2 mph - N/A   Clear